TimeEDT,TemperatureF,Dew PointF,Humidity,Sea Level PressureIn,VisibilityMPH,Wind Direction,Wind SpeedMPH,Gust SpeedMPH,PrecipitationIn,Events,Conditions,WindDirDegrees,DateUTC
12:53 AM,57.9,50.0,75,30.32,10.0,ENE,3.5,-,N/A,,Overcast,60,2013-10-13 04:53:00
1:24 AM,57.2,48.2,72,30.33,10.0,ENE,3.5,-,N/A,,Scattered Clouds,60,2013-10-13 05:24:00
1:53 AM,55.0,48.9,80,30.32,10.0,Calm,Calm,-,N/A,,Partly Cloudy,0,2013-10-13 05:53:00
2:24 AM,51.8,48.2,88,30.33,10.0,Calm,Calm,-,N/A,,Mostly Cloudy,0,2013-10-13 06:24:00
2:53 AM,52.0,48.9,89,30.32,10.0,Calm,Calm,-,N/A,,Mostly Cloudy,0,2013-10-13 06:53:00
3:13 AM,50.0,46.4,87,30.32,10.0,Calm,Calm,-,N/A,,Scattered Clouds,0,2013-10-13 07:13:00
3:53 AM,48.0,46.0,93,30.32,3.0,Calm,Calm,-,N/A,,Clear,0,2013-10-13 07:53:00
4:53 AM,46.0,44.1,93,30.33,10.0,Calm,Calm,-,N/A,,Clear,0,2013-10-13 08:53:00
5:53 AM,46.9,45.0,93,30.33,9.0,Calm,Calm,-,N/A,,Clear,0,2013-10-13 09:53:00
6:53 AM,45.0,44.1,97,30.35,9.0,Calm,Calm,-,N/A,,Clear,0,2013-10-13 10:53:00
7:53 AM,46.0,44.1,93,30.38,9.0,Calm,Calm,-,N/A,,Clear,0,2013-10-13 11:53:00
8:53 AM,54.0,48.9,83,30.39,10.0,Calm,Calm,-,N/A,,Clear,0,2013-10-13 12:53:00
9:44 AM,55.4,46.4,72,30.40,10.0,East,5.8,-,N/A,,Mostly Cloudy,80,2013-10-13 13:44:00
9:53 AM,55.9,46.9,72,30.40,10.0,Variable,5.8,-,N/A,,Mostly Cloudy,0,2013-10-13 13:53:00
10:53 AM,60.1,48.0,64,30.40,10.0,NNE,9.2,-,N/A,,Mostly Cloudy,30,2013-10-13 14:53:00
11:27 AM,62.6,48.2,59,30.40,10.0,ENE,3.5,-,N/A,,Scattered Clouds,60,2013-10-13 15:27:00
11:53 AM,62.1,46.9,58,30.39,10.0,Variable,3.5,-,N/A,,Clear,0,2013-10-13 15:53:00
12:53 PM,64.0,48.0,56,30.37,10.0,Variable,5.8,-,N/A,,Clear,0,2013-10-13 16:53:00
1:53 PM,66.0,48.0,52,30.35,10.0,Variable,4.6,-,N/A,,Clear,0,2013-10-13 17:53:00
2:53 PM,66.9,48.0,51,30.33,10.0,South,5.8,-,N/A,,Clear,180,2013-10-13 18:53:00
3:53 PM,66.9,48.9,52,30.32,10.0,ESE,8.1,-,N/A,,Clear,120,2013-10-13 19:53:00
4:53 PM,66.0,48.0,52,30.32,10.0,East,9.2,-,N/A,,Clear,100,2013-10-13 20:53:00
5:53 PM,62.1,48.0,60,30.33,10.0,East,4.6,-,N/A,,Clear,100,2013-10-13 21:53:00
6:53 PM,59.0,48.0,67,30.34,10.0,East,3.5,-,N/A,,Clear,90,2013-10-13 22:53:00
7:53 PM,55.9,48.0,75,30.36,10.0,ESE,3.5,-,N/A,,Clear,110,2013-10-13 23:53:00
8:53 PM,55.0,46.9,74,30.37,10.0,Calm,Calm,-,N/A,,Clear,0,2013-10-14 00:53:00
9:53 PM,51.1,46.9,86,30.37,10.0,Calm,Calm,-,N/A,,Clear,0,2013-10-14 01:53:00
10:53 PM,48.9,46.0,90,30.38,10.0,Calm,Calm,-,N/A,,Clear,0,2013-10-14 02:53:00
11:53 PM,46.9,45.0,93,30.37,10.0,Calm,Calm,-,N/A,,Clear,0,2013-10-14 03:53:00